Location: Maignaut
(43.8886°N, 0.4051°E)
Time: 18:45:08
(UTC+00:00)

Meteor 2-10 Rocket - Pass Details

Date: 17 January 2021
Orbit: 733 x 885 km, 81.2° (Epoch: 27 February)

Event Time Altitude Azimuth Distance (km) Brightness Sun altitude
Rises 17:57:14 0° 355° (N) 3,434 6.7 -12.1°
Reaches altitude 10° 17:59:51 10° 3° (N) 2,472 5.9 -12.6°
Maximum altitude 18:05:07 41° 73° (ENE) 1,174 4.0 -13.5°
Drops below altitude 10° 18:10:09 10° 143° (SE) 2,360 5.8 -14.4°
Sets 18:12:36 0° 150° (SSE) 3,260 6.6 -14.8°
